Time,TemperatureF,DewpointF,PressureIn,WindDirection,WindDirectionDegrees,WindSpeedMPH,WindSpeedGustMPH,Humidity,HourlyPrecipIn,Conditions,Clouds,dailyrainin,SoftwareType,DateUTC
2013-02-26 00:03:00,36.9,25.5,30.06,WSW,244,0.0,0.0,63,0.00,,,0.00,Wunderground v.1.15,2013-02-26 07:03:00,
2013-02-26 00:08:00,37.4,24.4,30.06,WSW,244,0.0,0.0,59,0.00,,,0.00,Wunderground v.1.15,2013-02-26 07:08:00,
2013-02-26 00:13:00,38.3,24.8,30.06,WSW,244,0.0,0.0,58,0.00,,,0.00,Wunderground v.1.15,2013-02-26 07:13:00,
2013-02-26 00:18:00,37.0,24.8,30.07,WSW,244,1.0,1.0,61,0.00,,,0.00,Wunderground v.1.15,2013-02-26 07:18:00,
2013-02-26 00:23:00,36.2,24.8,30.07,WSW,244,0.0,1.0,63,0.00,,,0.00,Wunderground v.1.15,2013-02-26 07:23:00,
2013-02-26 00:28:00,35.9,24.9,30.07,WSW,244,1.0,1.0,64,0.00,,,0.00,Wunderground v.1.15,2013-02-26 07:28:00,
2013-02-26 00:34:00,35.8,25.5,30.06,WSW,244,0.0,1.0,66,0.00,,,0.00,Wunderground v.1.15,2013-02-26 07:34:00,
2013-02-26 00:39:00,35.6,25.4,30.06,WSW,244,0.0,1.0,66,0.00,,,0.00,Wunderground v.1.15,2013-02-26 07:39:00,
2013-02-26 00:44:00,35.6,25.4,30.07,WSW,244,0.0,0.0,66,0.00,,,0.00,Wunderground v.1.15,2013-02-26 07:44:00,
2013-02-26 00:49:00,35.8,25.9,30.06,WSW,244,0.0,1.0,67,0.00,,,0.00,Wunderground v.1.15,2013-02-26 07:49:00,
2013-02-26 00:54:00,35.4,25.2,30.07,WSW,244,1.0,1.0,66,0.00,,,0.00,Wunderground v.1.15,2013-02-26 07:54:00,
2013-02-26 00:59:00,35.0,25.1,30.07,WSW,244,1.0,1.0,67,0.00,,,0.00,Wunderground v.1.15,2013-02-26 07:59:00,
2013-02-26 01:04:00,34.9,25.8,30.06,WSW,244,0.0,1.0,69,0.00,,,0.00,Wunderground v.1.15,2013-02-26 08:04:00,
2013-02-26 01:09:00,35.2,25.3,30.06,WSW,244,1.0,1.0,67,0.00,,,0.00,Wunderground v.1.15,2013-02-26 08:09:00,
2013-02-26 01:14:00,35.4,25.2,30.06,WSW,244,0.0,1.0,66,0.00,,,0.00,Wunderground v.1.15,2013-02-26 08:14:00,
2013-02-26 01:19:00,34.7,25.6,30.06,WSW,244,0.0,0.0,69,0.00,,,0.00,Wunderground v.1.15,2013-02-26 08:19:00,
2013-02-26 01:24:00,35.0,25.9,30.06,WSW,244,0.0,0.0,69,0.00,,,0.00,Wunderground v.1.15,2013-02-26 08:24:00,
2013-02-26 01:29:00,34.3,25.5,30.06,WSW,244,0.0,0.0,70,0.00,,,0.00,Wunderground v.1.15,2013-02-26 08:29:00,
2013-02-26 01:35:00,34.1,25.7,30.06,WSW,244,0.0,0.0,71,0.00,,,0.00,Wunderground v.1.15,2013-02-26 08:35:00,
2013-02-26 01:40:00,34.0,25.9,30.06,WSW,244,0.0,0.0,72,0.00,,,0.00,Wunderground v.1.15,2013-02-26 08:40:00,
2013-02-26 01:45:00,33.8,25.4,30.05,WSW,244,0.0,0.0,71,0.00,,,0.00,Wunderground v.1.15,2013-02-26 08:45:00,
2013-02-26 01:50:00,33.6,25.5,30.05,WSW,244,2.0,2.0,72,0.00,,,0.00,Wunderground v.1.15,2013-02-26 08:50:00,
2013-02-26 01:55:00,33.4,25.7,30.05,WSW,244,1.0,2.0,73,0.00,,,0.00,Wunderground v.1.15,2013-02-26 08:55:00,
2013-02-26 02:00:00,34.5,25.7,30.05,WSW,244,0.0,1.0,70,0.00,,,0.00,Wunderground v.1.15,2013-02-26 09:00:00,
2013-02-26 02:05:00,35.1,25.2,30.05,WSW,244,0.0,1.0,67,0.00,,,0.00,Wunderground v.1.15,2013-02-26 09:05:00,
2013-02-26 02:10:00,34.3,25.2,30.05,WSW,244,0.0,1.0,69,0.00,,,0.00,Wunderground v.1.15,2013-02-26 09:10:00,
2013-02-26 02:15:00,34.5,25.4,30.05,WSW,244,0.0,1.0,69,0.00,,,0.00,Wunderground v.1.15,2013-02-26 09:15:00,
2013-02-26 02:20:00,33.7,25.3,30.05,WSW,244,0.0,1.0,71,0.00,,,0.00,Wunderground v.1.15,2013-02-26 09:20:00,
2013-02-26 02:25:00,33.9,25.5,30.04,WSW,244,0.0,1.0,71,0.00,,,0.00,Wunderground v.1.15,2013-02-26 09:25:00,
2013-02-26 02:30:00,34.2,25.1,30.04,WSW,244,0.0,0.0,69,0.00,,,0.00,Wunderground v.1.15,2013-02-26 09:30:00,
2013-02-26 02:35:00,33.7,25.6,30.04,WSW,244,0.0,0.0,72,0.00,,,0.00,Wunderground v.1.15,2013-02-26 09:35:00,
2013-02-26 02:41:00,34.5,25.4,30.04,WSW,244,0.0,0.0,69,0.00,,,0.00,Wunderground v.1.15,2013-02-26 09:41:00,
2013-02-26 02:46:00,34.6,25.5,30.04,WSW,244,0.0,1.0,69,0.00,,,0.00,Wunderground v.1.15,2013-02-26 09:46:00,
2013-02-26 02:51:00,33.3,24.9,30.04,WSW,244,0.0,0.0,71,0.00,,,0.00,Wunderground v.1.15,2013-02-26 09:51:00,
2013-02-26 02:56:00,32.8,25.7,30.03,WSW,244,0.0,1.0,75,0.00,,,0.00,Wunderground v.1.15,2013-02-26 09:56:00,
2013-02-26 03:01:00,32.5,25.1,30.03,WSW,244,0.0,0.0,74,0.00,,,0.00,Wunderground v.1.15,2013-02-26 10:01:00,
2013-02-26 03:06:00,32.3,25.6,30.03,WSW,244,0.0,0.0,76,0.00,,,0.00,Wunderground v.1.15,2013-02-26 10:06:00,
2013-02-26 03:11:00,32.0,25.3,30.03,WSW,244,0.0,0.0,76,0.00,,,0.00,Wunderground v.1.15,2013-02-26 10:11:00,
2013-02-26 03:16:00,32.0,25.3,30.02,WSW,244,0.0,0.0,76,0.00,,,0.00,Wunderground v.1.15,2013-02-26 10:16:00,
2013-02-26 03:22:00,32.2,25.5,30.02,WSW,244,0.0,2.0,76,0.00,,,0.00,Wunderground v.1.15,2013-02-26 10:22:00,
2013-02-26 03:27:00,32.8,25.1,30.02,WSW,244,0.0,2.0,73,0.00,,,0.00,Wunderground v.1.15,2013-02-26 10:27:00,
2013-02-26 03:32:00,33.3,24.9,30.02,WSW,244,0.0,1.0,71,0.00,,,0.00,Wunderground v.1.15,2013-02-26 10:32:00,
2013-02-26 03:37:00,32.0,25.3,30.02,WSW,244,0.0,1.0,76,0.00,,,0.00,Wunderground v.1.15,2013-02-26 10:37:00,
2013-02-26 03:42:00,32.2,24.8,30.01,WSW,244,0.0,0.0,74,0.00,,,0.00,Wunderground v.1.15,2013-02-26 10:42:00,
2013-02-26 03:47:00,32.6,25.2,30.02,WSW,244,0.0,0.0,74,0.00,,,0.00,Wunderground v.1.15,2013-02-26 10:47:00,
2013-02-26 03:52:00,31.8,25.1,30.02,WSW,244,0.0,1.0,76,0.00,,,0.00,Wunderground v.1.15,2013-02-26 10:52:00,
2013-02-26 03:57:00,31.4,25.3,30.02,WSW,244,0.0,1.0,78,0.00,,,0.00,Wunderground v.1.15,2013-02-26 10:57:00,
2013-02-26 04:02:00,31.8,25.4,30.01,WSW,244,0.0,0.0,77,0.00,,,0.00,Wunderground v.1.15,2013-02-26 11:02:00,
2013-02-26 04:08:00,31.5,24.8,30.01,WSW,244,0.0,0.0,76,0.00,,,0.00,Wunderground v.1.15,2013-02-26 11:08:00,
2013-02-26 04:13:00,31.7,24.7,30.01,WSW,244,0.0,0.0,75,0.00,,,0.00,Wunderground v.1.15,2013-02-26 11:13:00,
2013-02-26 04:18:00,32.7,24.7,30.01,WSW,244,0.0,0.0,72,0.00,,,0.00,Wunderground v.1.15,2013-02-26 11:18:00,
2013-02-26 04:23:00,31.0,24.6,30.01,WSW,244,0.0,0.0,77,0.00,,,0.00,Wunderground v.1.15,2013-02-26 11:23:00,
2013-02-26 04:28:00,30.6,24.9,30.01,WSW,244,0.0,0.0,79,0.00,,,0.00,Wunderground v.1.15,2013-02-26 11:28:00,
2013-02-26 04:33:00,30.7,25.0,30.01,WSW,244,0.0,1.0,79,0.00,,,0.00,Wunderground v.1.15,2013-02-26 11:33:00,
2013-02-26 04:38:00,30.8,24.7,30.01,WSW,244,0.0,1.0,78,0.00,,,0.00,Wunderground v.1.15,2013-02-26 11:38:00,
2013-02-26 04:43:00,30.2,24.8,30.01,WSW,244,0.0,0.0,80,0.00,,,0.00,Wunderground v.1.15,2013-02-26 11:43:00,
2013-02-26 04:48:00,31.6,24.9,30.01,WSW,237,0.0,1.0,76,0.00,,,0.00,Wunderground v.1.15,2013-02-26 11:48:00,
2013-02-26 04:53:00,31.4,25.0,30.01,WSW,237,0.0,0.0,77,0.00,,,0.00,Wunderground v.1.15,2013-02-26 11:53:00,
2013-02-26 04:58:00,30.6,24.6,30.01,WSW,237,0.0,0.0,78,0.00,,,0.00,Wunderground v.1.15,2013-02-26 11:58:00,
2013-02-26 05:03:00,31.0,24.6,30.01,SW,236,0.0,1.0,77,0.00,,,0.00,Wunderground v.1.15,2013-02-26 12:03:00,
2013-02-26 05:09:00,31.0,24.3,30.01,SW,236,0.0,1.0,76,0.00,,,0.00,Wunderground v.1.15,2013-02-26 12:09:00,
2013-02-26 05:14:00,30.3,24.3,30.01,SW,236,0.0,1.0,78,0.00,,,0.00,Wunderground v.1.15,2013-02-26 12:14:00,
2013-02-26 05:19:00,30.2,24.5,30.01,SW,236,0.0,1.0,79,0.00,,,0.00,Wunderground v.1.15,2013-02-26 12:19:00,
2013-02-26 05:24:00,30.2,24.2,30.02,SW,236,0.0,0.0,78,0.00,,,0.00,Wunderground v.1.15,2013-02-26 12:24:00,
2013-02-26 05:29:00,30.0,24.6,30.01,SW,236,0.0,0.0,80,0.00,,,0.00,Wunderground v.1.15,2013-02-26 12:29:00,
2013-02-26 05:34:00,29.6,24.5,30.02,SW,236,0.0,0.0,81,0.00,,,0.00,Wunderground v.1.15,2013-02-26 12:34:00,
2013-02-26 05:39:00,29.8,24.4,30.01,SW,236,0.0,0.0,80,0.00,,,0.00,Wunderground v.1.15,2013-02-26 12:39:00,
2013-02-26 05:44:00,30.4,24.4,30.02,SW,236,0.0,0.0,78,0.00,,,0.00,Wunderground v.1.15,2013-02-26 12:44:00,
2013-02-26 05:49:00,31.0,24.3,30.02,SW,236,0.0,0.0,76,0.00,,,0.00,Wunderground v.1.15,2013-02-26 12:49:00,
2013-02-26 05:54:00,30.5,23.8,30.02,SW,236,0.0,0.0,76,0.00,,,0.00,Wunderground v.1.15,2013-02-26 12:54:00,
2013-02-26 06:00:00,29.0,23.6,30.02,SW,236,0.0,0.0,80,0.00,,,0.00,Wunderground v.1.15,2013-02-26 13:00:00,
2013-02-26 06:05:00,28.7,23.6,30.02,SW,236,0.0,0.0,81,0.00,,,0.00,Wunderground v.1.15,2013-02-26 13:05:00,
2013-02-26 06:10:00,29.1,24.0,30.03,SW,236,0.0,0.0,81,0.00,,,0.00,Wunderground v.1.15,2013-02-26 13:10:00,
2013-02-26 06:15:00,28.9,24.1,30.03,SW,236,0.0,0.0,82,0.00,,,0.00,Wunderground v.1.15,2013-02-26 13:15:00,
2013-02-26 06:20:00,29.1,24.3,30.03,SW,236,0.0,0.0,82,0.00,,,0.00,Wunderground v.1.15,2013-02-26 13:20:00,
2013-02-26 06:25:00,28.6,24.1,30.03,SW,236,0.0,0.0,83,0.00,,,0.00,Wunderground v.1.15,2013-02-26 13:25:00,
2013-02-26 06:30:00,28.6,23.8,30.03,SW,236,0.0,0.0,82,0.00,,,0.00,Wunderground v.1.15,2013-02-26 13:30:00,
2013-02-26 06:35:00,28.5,24.0,30.03,SW,236,0.0,0.0,83,0.00,,,0.00,Wunderground v.1.15,2013-02-26 13:35:00,
2013-02-26 06:40:00,28.9,24.4,30.03,SW,236,0.0,0.0,83,0.00,,,0.00,Wunderground v.1.15,2013-02-26 13:40:00,
2013-02-26 06:45:00,30.0,24.3,30.03,SW,236,0.0,1.0,79,0.00,,,0.00,Wunderground v.1.15,2013-02-26 13:45:00,
2013-02-26 06:51:00,30.5,24.1,30.03,SW,236,0.0,0.0,77,0.00,,,0.00,Wunderground v.1.15,2013-02-26 13:51:00,
2013-02-26 06:56:00,30.5,24.1,30.03,SW,236,0.0,0.0,77,0.00,,,0.00,Wunderground v.1.15,2013-02-26 13:56:00,
2013-02-26 07:01:00,29.9,23.9,30.03,SW,236,0.0,0.0,78,0.00,,,0.00,Wunderground v.1.15,2013-02-26 14:01:00,
2013-02-26 07:06:00,31.0,24.0,30.03,SW,236,0.0,0.0,75,0.00,,,0.00,Wunderground v.1.15,2013-02-26 14:06:00,
2013-02-26 07:11:00,31.5,24.2,30.03,SW,236,0.0,0.0,74,0.00,,,0.00,Wunderground v.1.15,2013-02-26 14:11:00,
2013-02-26 07:16:00,31.3,24.0,30.03,SW,236,0.0,1.0,74,0.00,,,0.00,Wunderground v.1.15,2013-02-26 14:16:00,
2013-02-26 07:21:00,31.6,24.6,30.03,SW,236,0.0,0.0,75,0.00,,,0.00,Wunderground v.1.15,2013-02-26 14:21:00,
2013-02-26 07:26:00,31.8,24.5,30.03,SW,236,0.0,0.0,74,0.00,,,0.00,Wunderground v.1.15,2013-02-26 14:26:00,
2013-02-26 07:31:00,32.1,24.7,30.03,SW,236,0.0,0.0,74,0.00,,,0.00,Wunderground v.1.15,2013-02-26 14:31:00,
2013-02-26 07:36:00,33.5,25.4,30.03,SW,236,0.0,0.0,72,0.00,,,0.00,Wunderground v.1.15,2013-02-26 14:36:00,
2013-02-26 07:41:00,34.8,26.0,30.03,SW,236,0.0,0.0,70,0.00,,,0.00,Wunderground v.1.15,2013-02-26 14:41:00,
2013-02-26 07:46:00,36.3,26.4,30.03,SW,236,0.0,0.0,67,0.00,,,0.00,Wunderground v.1.15,2013-02-26 14:46:00,
2013-02-26 07:51:00,37.6,26.5,30.03,SW,236,0.0,0.0,64,0.00,,,0.00,Wunderground v.1.15,2013-02-26 14:51:00,
2013-02-26 07:57:00,37.7,27.0,30.03,SW,236,0.0,0.0,65,0.00,,,0.00,Wunderground v.1.15,2013-02-26 14:57:00,
2013-02-26 08:02:00,39.3,27.0,30.03,SE,140,0.0,2.0,61,0.00,,,0.00,Wunderground v.1.15,2013-02-26 15:02:00,
2013-02-26 08:07:00,40.2,26.6,30.03,ESE,123,0.0,2.0,58,0.00,,,0.00,Wunderground v.1.15,2013-02-26 15:07:00,
2013-02-26 08:12:00,40.8,26.7,30.03,ESE,123,0.0,1.0,57,0.00,,,0.00,Wunderground v.1.15,2013-02-26 15:12:00,
2013-02-26 08:17:00,41.2,25.3,30.03,SE,127,1.0,3.0,53,0.00,,,0.00,Wunderground v.1.15,2013-02-26 15:17:00,
2013-02-26 08:22:00,41.9,26.0,30.04,SE,127,2.0,2.0,53,0.00,,,0.00,Wunderground v.1.15,2013-02-26 15:22:00,
2013-02-26 08:27:00,42.6,25.2,30.04,ESE,119,2.0,2.0,50,0.00,,,0.00,Wunderground v.1.15,2013-02-26 15:27:00,
2013-02-26 08:32:00,43.1,25.2,30.04,East,90,2.0,2.0,49,0.00,,,0.00,Wunderground v.1.15,2013-02-26 15:32:00,
2013-02-26 08:37:00,43.9,23.9,30.04,ESE,115,0.0,2.0,45,0.00,,,0.00,Wunderground v.1.15,2013-02-26 15:37:00,
2013-02-26 08:42:00,44.7,24.6,30.05,ENE,72,1.0,2.0,45,0.00,,,0.00,Wunderground v.1.15,2013-02-26 15:42:00,
2013-02-26 08:47:00,44.6,24.0,30.05,ENE,75,1.0,5.0,44,0.00,,,0.00,Wunderground v.1.15,2013-02-26 15:47:00,
2013-02-26 08:53:00,45.2,24.0,30.05,ESE,114,1.0,3.0,43,0.00,,,0.00,Wunderground v.1.15,2013-02-26 15:53:00,
2013-02-26 08:58:00,45.4,23.0,30.05,ENE,69,2.0,3.0,41,0.00,,,0.00,Wunderground v.1.15,2013-02-26 15:58:00,
2013-02-26 09:03:00,45.4,23.6,30.05,ENE,76,0.0,3.0,42,0.00,,,0.00,Wunderground v.1.15,2013-02-26 16:03:00,
2013-02-26 09:08:00,46.5,23.4,30.05,ESE,108,1.0,3.0,40,0.00,,,0.00,Wunderground v.1.15,2013-02-26 16:08:00,
2013-02-26 09:13:00,47.0,22.7,30.05,ESE,109,2.0,5.0,38,0.00,,,0.00,Wunderground v.1.15,2013-02-26 16:13:00,
2013-02-26 09:18:00,47.7,23.3,30.05,SE,125,3.0,5.0,38,0.00,,,0.00,Wunderground v.1.15,2013-02-26 16:18:00,
2013-02-26 09:23:00,47.6,23.2,30.05,ESE,123,1.0,4.0,38,0.00,,,0.00,Wunderground v.1.15,2013-02-26 16:23:00,
2013-02-26 09:28:00,48.5,23.4,30.05,ESE,112,3.0,4.0,37,0.00,,,0.00,Wunderground v.1.15,2013-02-26 16:28:00,
2013-02-26 09:33:00,48.3,23.2,30.05,ESE,113,2.0,4.0,37,0.00,,,0.00,Wunderground v.1.15,2013-02-26 16:33:00,
2013-02-26 09:39:00,48.9,23.7,30.04,East,95,1.0,4.0,37,0.00,,,0.00,Wunderground v.1.15,2013-02-26 16:39:00,
2013-02-26 09:44:00,49.8,23.9,30.04,East,82,0.0,2.0,36,0.00,,,0.00,Wunderground v.1.15,2013-02-26 16:44:00,
2013-02-26 09:49:00,49.5,22.9,30.05,ENE,78,2.0,4.0,35,0.00,,,0.00,Wunderground v.1.15,2013-02-26 16:49:00,
2013-02-26 09:54:00,49.8,23.2,30.05,SSE,158,0.0,4.0,35,0.00,,,0.00,Wunderground v.1.15,2013-02-26 16:54:00,
2013-02-26 09:59:00,50.3,23.7,30.04,East,90,0.0,4.0,35,0.00,,,0.00,Wunderground v.1.15,2013-02-26 16:59:00,
2013-02-26 10:04:00,50.2,22.2,30.04,East,83,0.0,2.0,33,0.00,,,0.00,Wunderground v.1.15,2013-02-26 17:04:00,
2013-02-26 10:09:00,50.9,22.8,30.04,East,79,1.0,2.0,33,0.00,,,0.00,Wunderground v.1.15,2013-02-26 17:09:00,
2013-02-26 10:14:00,51.1,23.0,30.04,East,80,0.0,2.0,33,0.00,,,0.00,Wunderground v.1.15,2013-02-26 17:14:00,
2013-02-26 10:19:00,51.5,23.3,30.04,ENE,58,1.0,1.0,33,0.00,,,0.00,Wunderground v.1.15,2013-02-26 17:19:00,
2013-02-26 10:24:00,52.2,23.9,30.04,ESE,116,0.0,3.0,33,0.00,,,0.00,Wunderground v.1.15,2013-02-26 17:24:00,
2013-02-26 10:30:00,52.4,21.8,30.03,ESE,116,0.0,1.0,30,0.00,,,0.00,Wunderground v.1.15,2013-02-26 17:30:00,
2013-02-26 10:35:00,53.2,23.3,30.03,East,93,1.0,3.0,31,0.00,,,0.00,Wunderground v.1.15,2013-02-26 17:35:00,
2013-02-26 10:40:00,54.0,24.0,30.04,East,86,0.0,1.0,31,0.00,,,0.00,Wunderground v.1.15,2013-02-26 17:40:00,
2013-02-26 10:45:00,54.5,22.0,30.04,North,5,1.0,3.0,28,0.00,,,0.00,Wunderground v.1.15,2013-02-26 17:45:00,
2013-02-26 10:50:00,54.2,23.4,30.04,North,9,0.0,1.0,30,0.00,,,0.00,Wunderground v.1.15,2013-02-26 17:50:00,
2013-02-26 10:55:00,55.0,23.3,30.04,SSE,166,3.0,3.0,29,0.00,,,0.00,Wunderground v.1.15,2013-02-26 17:55:00,
2013-02-26 11:00:00,55.9,22.4,30.03,NNW,348,4.0,4.0,27,0.00,,,0.00,Wunderground v.1.15,2013-02-26 18:00:00,
2013-02-26 11:05:00,56.0,22.4,30.04,North,10,0.0,4.0,27,0.00,,,0.00,Wunderground v.1.15,2013-02-26 18:05:00,
2013-02-26 11:10:00,55.6,21.2,30.03,West,277,0.0,1.0,26,0.00,,,0.00,Wunderground v.1.15,2013-02-26 18:10:00,
2013-02-26 11:15:00,55.9,21.5,30.03,NW,321,3.0,3.0,26,0.00,,,0.00,Wunderground v.1.15,2013-02-26 18:15:00,
2013-02-26 11:20:00,56.9,22.3,30.03,WNW,288,2.0,4.0,26,0.00,,,0.00,Wunderground v.1.15,2013-02-26 18:20:00,
2013-02-26 11:25:00,57.2,21.6,30.03,NNW,340,2.0,4.0,25,0.00,,,0.00,Wunderground v.1.15,2013-02-26 18:25:00,
2013-02-26 11:30:00,57.7,22.1,30.03,North,355,2.0,5.0,25,0.00,,,0.00,Wunderground v.1.15,2013-02-26 18:30:00,
2013-02-26 11:36:00,58.6,23.8,30.03,NNW,330,1.0,6.0,26,0.00,,,0.00,Wunderground v.1.15,2013-02-26 18:36:00,
2013-02-26 11:41:00,58.7,21.0,30.03,NNW,331,1.0,3.0,23,0.00,,,0.00,Wunderground v.1.15,2013-02-26 18:41:00,
2013-02-26 11:46:00,59.0,21.2,30.03,NW,325,4.0,5.0,23,0.00,,,0.00,Wunderground v.1.15,2013-02-26 18:46:00,
2013-02-26 11:51:00,59.5,20.6,30.03,WNW,303,2.0,5.0,22,0.00,,,0.00,Wunderground v.1.15,2013-02-26 18:51:00,
2013-02-26 11:56:00,59.3,21.5,30.03,North,360,5.0,5.0,23,0.00,,,0.00,Wunderground v.1.15,2013-02-26 18:56:00,
2013-02-26 12:01:00,59.4,19.4,30.03,NNW,334,4.0,5.0,21,0.00,,,0.00,Wunderground v.1.15,2013-02-26 19:01:00,
2013-02-26 12:07:00,59.3,18.2,30.02,WNW,290,3.0,6.0,20,0.00,,,0.00,Wunderground v.1.15,2013-02-26 19:07:00,
2013-02-26 12:12:00,59.5,19.5,30.02,North,350,3.0,5.0,21,0.00,,,0.00,Wunderground v.1.15,2013-02-26 19:12:00,
2013-02-26 12:17:00,60.3,15.2,30.02,WNW,295,4.0,7.0,17,0.00,,,0.00,Wunderground v.1.15,2013-02-26 19:17:00,
2013-02-26 12:22:00,60.7,15.6,30.02,North,5,4.0,5.0,17,0.00,,,0.00,Wunderground v.1.15,2013-02-26 19:22:00,
2013-02-26 12:27:00,60.9,19.5,30.02,NW,321,13.0,13.0,20,0.00,,,0.00,Wunderground v.1.15,2013-02-26 19:27:00,
2013-02-26 12:32:00,60.8,15.6,30.02,NNW,348,5.0,10.0,17,0.00,,,0.00,Wunderground v.1.15,2013-02-26 19:32:00,
2013-02-26 12:37:00,61.0,17.1,30.02,NW,319,5.0,10.0,18,0.00,,,0.00,Wunderground v.1.15,2013-02-26 19:37:00,
2013-02-26 12:42:00,61.1,15.9,30.02,WNW,296,6.0,9.0,17,0.00,,,0.00,Wunderground v.1.15,2013-02-26 19:42:00,
2013-02-26 12:47:00,60.9,17.0,30.02,WNW,289,5.0,9.0,18,0.00,,,0.00,Wunderground v.1.15,2013-02-26 19:47:00,
2013-02-26 12:52:00,61.3,18.6,30.01,NNW,331,5.0,8.0,19,0.00,,,0.00,Wunderground v.1.15,2013-02-26 19:52:00,
2013-02-26 12:57:00,61.1,17.2,30.01,WNW,300,4.0,10.0,18,0.00,,,0.00,Wunderground v.1.15,2013-02-26 19:57:00,
2013-02-26 13:02:00,61.3,17.4,30.01,North,355,5.0,8.0,18,0.00,,,0.00,Wunderground v.1.15,2013-02-26 20:02:00,
2013-02-26 13:07:00,61.4,18.7,30.01,WNW,300,3.0,9.0,19,0.00,,,0.00,Wunderground v.1.15,2013-02-26 20:07:00,
2013-02-26 13:13:00,61.3,18.6,30.01,North,360,5.0,6.0,19,0.00,,,0.00,Wunderground v.1.15,2013-02-26 20:13:00,
2013-02-26 13:18:00,61.6,17.6,30.01,West,269,11.0,12.0,18,0.00,,,0.00,Wunderground v.1.15,2013-02-26 20:18:00,
2013-02-26 13:23:00,61.2,18.6,30.00,NW,318,5.0,9.0,19,0.00,,,0.00,Wunderground v.1.15,2013-02-26 20:23:00,
2013-02-26 13:28:00,61.8,17.8,30.00,WNW,291,6.0,13.0,18,0.00,,,0.00,Wunderground v.1.15,2013-02-26 20:28:00,
2013-02-26 13:33:00,61.7,19.0,30.00,West,269,6.0,10.0,19,0.00,,,0.00,Wunderground v.1.15,2013-02-26 20:33:00,
2013-02-26 13:38:00,61.5,17.5,30.00,North,360,6.0,10.0,18,0.00,,,0.00,Wunderground v.1.15,2013-02-26 20:38:00,
2013-02-26 13:43:00,61.7,17.7,30.00,WNW,284,5.0,12.0,18,0.00,,,0.00,Wunderground v.1.15,2013-02-26 20:43:00,
2013-02-26 13:48:00,61.2,18.6,30.00,NNW,333,10.0,12.0,19,0.00,,,0.00,Wunderground v.1.15,2013-02-26 20:48:00,
2013-02-26 13:53:00,62.0,16.6,30.00,North,355,5.0,8.0,17,0.00,,,0.00,Wunderground v.1.15,2013-02-26 20:53:00,
2013-02-26 13:58:00,61.6,14.9,29.99,NNW,336,3.0,12.0,16,0.00,,,0.00,Wunderground v.1.15,2013-02-26 20:58:00,
2013-02-26 14:03:00,61.7,16.4,29.99,NNW,339,9.0,12.0,17,0.00,,,0.00,Wunderground v.1.15,2013-02-26 21:03:00,
2013-02-26 14:08:00,61.7,16.4,29.99,NW,317,6.0,12.0,17,0.00,,,0.00,Wunderground v.1.15,2013-02-26 21:08:00,
2013-02-26 14:13:00,62.2,16.8,29.99,NNW,329,4.0,13.0,17,0.00,,,0.00,Wunderground v.1.15,2013-02-26 21:13:00,
2013-02-26 14:18:00,62.0,16.6,29.99,NW,306,4.0,13.0,17,0.00,,,0.00,Wunderground v.1.15,2013-02-26 21:18:00,
2013-02-26 14:23:00,61.4,16.1,29.99,North,355,9.0,9.0,17,0.00,,,0.00,Wunderground v.1.15,2013-02-26 21:23:00,
2013-02-26 14:29:00,62.1,19.3,29.99,NW,311,5.0,9.0,19,0.00,,,0.00,Wunderground v.1.15,2013-02-26 21:29:00,
2013-02-26 14:34:00,62.2,18.1,29.99,NNE,13,6.0,8.0,18,0.00,,,0.00,Wunderground v.1.15,2013-02-26 21:34:00,
2013-02-26 14:39:00,62.2,20.6,29.99,West,279,4.0,8.0,20,0.00,,,0.00,Wunderground v.1.15,2013-02-26 21:39:00,
2013-02-26 14:44:00,62.5,20.8,29.99,WNW,288,5.0,11.0,20,0.00,,,0.00,Wunderground v.1.15,2013-02-26 21:44:00,
2013-02-26 14:49:00,62.5,22.0,29.99,West,271,3.0,11.0,21,0.00,,,0.00,Wunderground v.1.15,2013-02-26 21:49:00,
2013-02-26 14:54:00,62.2,19.4,29.98,West,270,10.0,10.0,19,0.00,,,0.00,Wunderground v.1.15,2013-02-26 21:54:00,
2013-02-26 14:59:00,62.0,20.4,29.98,NW,307,6.0,6.0,20,0.00,,,0.00,Wunderground v.1.15,2013-02-26 21:59:00,
2013-02-26 15:04:00,62.3,20.7,29.98,NW,326,4.0,9.0,20,0.00,,,0.00,Wunderground v.1.15,2013-02-26 22:04:00,
2013-02-26 15:09:00,62.5,20.8,29.98,NW,318,8.0,8.0,20,0.00,,,0.00,Wunderground v.1.15,2013-02-26 22:09:00,
2013-02-26 15:14:00,62.5,20.8,29.98,NNW,342,4.0,11.0,20,0.00,,,0.00,Wunderground v.1.15,2013-02-26 22:14:00,
2013-02-26 15:20:00,62.8,19.9,29.98,WNW,296,6.0,6.0,19,0.00,,,0.00,Wunderground v.1.15,2013-02-26 22:20:00,
2013-02-26 15:25:00,63.0,20.0,29.98,NNW,327,5.0,7.0,19,0.00,,,0.00,Wunderground v.1.15,2013-02-26 22:25:00,
2013-02-26 15:30:00,62.8,19.9,29.99,NW,317,4.0,7.0,19,0.00,,,0.00,Wunderground v.1.15,2013-02-26 22:30:00,
2013-02-26 15:35:00,62.2,18.1,29.99,NNW,341,6.0,9.0,18,0.00,,,0.00,Wunderground v.1.15,2013-02-26 22:35:00,
2013-02-26 15:40:00,62.0,19.2,29.98,NW,309,8.0,8.0,19,0.00,,,0.00,Wunderground v.1.15,2013-02-26 22:40:00,
2013-02-26 15:45:00,61.9,19.1,29.99,NW,324,4.0,9.0,19,0.00,,,0.00,Wunderground v.1.15,2013-02-26 22:45:00,
2013-02-26 15:50:00,62.1,20.5,29.98,North,355,6.0,7.0,20,0.00,,,0.00,Wunderground v.1.15,2013-02-26 22:50:00,
2013-02-26 15:55:00,62.4,21.9,29.98,WNW,299,7.0,7.0,21,0.00,,,0.00,Wunderground v.1.15,2013-02-26 22:55:00,
2013-02-26 16:00:00,62.3,20.7,29.98,NW,311,8.0,8.0,20,0.00,,,0.00,Wunderground v.1.15,2013-02-26 23:00:00,
2013-02-26 16:06:00,62.6,20.9,29.99,NW,315,9.0,9.0,20,0.00,,,0.00,Wunderground v.1.15,2013-02-26 23:06:00,
2013-02-26 16:11:00,61.9,20.3,29.99,West,272,8.0,8.0,20,0.00,,,0.00,Wunderground v.1.15,2013-02-26 23:11:00,
2013-02-26 16:16:00,62.6,20.9,29.99,NW,317,7.0,9.0,20,0.00,,,0.00,Wunderground v.1.15,2013-02-26 23:16:00,
2013-02-26 16:21:00,62.0,20.4,29.99,NW,317,3.0,9.0,20,0.00,,,0.00,Wunderground v.1.15,2013-02-26 23:21:00,
2013-02-26 16:26:00,62.0,20.4,29.99,WNW,301,3.0,10.0,20,0.00,,,0.00,Wunderground v.1.15,2013-02-26 23:26:00,
2013-02-26 16:31:00,62.0,21.6,29.99,NNW,336,2.0,8.0,21,0.00,,,0.00,Wunderground v.1.15,2013-02-26 23:31:00,
2013-02-26 16:36:00,61.7,20.2,29.99,WNW,289,4.0,10.0,20,0.00,,,0.00,Wunderground v.1.15,2013-02-26 23:36:00,
2013-02-26 16:41:00,61.7,21.3,29.99,NW,322,2.0,8.0,21,0.00,,,0.00,Wunderground v.1.15,2013-02-26 23:41:00,
2013-02-26 16:46:00,61.4,19.9,29.99,WNW,300,8.0,8.0,20,0.00,,,0.00,Wunderground v.1.15,2013-02-26 23:46:00,
2013-02-26 16:51:00,61.4,19.9,29.98,WNW,300,9.0,9.0,20,0.00,,,0.00,Wunderground v.1.15,2013-02-26 23:51:00,
2013-02-26 16:56:00,61.2,18.6,29.98,WNW,297,6.0,10.0,19,0.00,,,0.00,Wunderground v.1.15,2013-02-26 23:56:00,
2013-02-26 17:01:00,60.8,19.4,29.98,NW,311,7.0,8.0,20,0.00,,,0.00,Wunderground v.1.15,2013-02-27 00:01:00,
2013-02-26 17:06:00,60.7,19.3,29.98,NW,313,5.0,9.0,20,0.00,,,0.00,Wunderground v.1.15,2013-02-27 00:06:00,
2013-02-26 17:11:00,60.4,19.1,29.98,NNW,335,8.0,8.0,20,0.00,,,0.00,Wunderground v.1.15,2013-02-27 00:11:00,
2013-02-26 17:16:00,60.2,20.1,29.98,NW,311,3.0,8.0,21,0.00,,,0.00,Wunderground v.1.15,2013-02-27 00:16:00,
2013-02-26 17:22:00,59.7,19.6,29.99,WNW,287,4.0,8.0,21,0.00,,,0.00,Wunderground v.1.15,2013-02-27 00:22:00,
2013-02-26 17:27:00,59.6,19.6,29.99,WNW,303,4.0,8.0,21,0.00,,,0.00,Wunderground v.1.15,2013-02-27 00:27:00,
2013-02-26 17:32:00,59.4,19.4,29.99,WNW,298,0.0,8.0,21,0.00,,,0.00,Wunderground v.1.15,2013-02-27 00:32:00,
2013-02-26 17:37:00,59.1,19.1,29.99,NW,311,5.0,8.0,21,0.00,,,0.00,Wunderground v.1.15,2013-02-27 00:37:00,
2013-02-26 17:42:00,58.8,20.0,29.99,West,273,3.0,9.0,22,0.00,,,0.00,Wunderground v.1.15,2013-02-27 00:42:00,
2013-02-26 17:47:00,58.4,18.6,29.98,West,275,5.0,9.0,21,0.00,,,0.00,Wunderground v.1.15,2013-02-27 00:47:00,
2013-02-26 17:52:00,57.9,19.2,29.98,WNW,282,4.0,8.0,22,0.00,,,0.00,Wunderground v.1.15,2013-02-27 00:52:00,
2013-02-26 17:57:00,57.3,18.7,29.99,WNW,289,4.0,8.0,22,0.00,,,0.00,Wunderground v.1.15,2013-02-27 00:57:00,
2013-02-26 18:02:00,56.8,18.3,29.99,NW,306,1.0,4.0,22,0.00,,,0.00,Wunderground v.1.15,2013-02-27 01:02:00,
2013-02-26 18:07:00,56.3,17.9,29.99,WNW,298,2.0,5.0,22,0.00,,,0.00,Wunderground v.1.15,2013-02-27 01:07:00,
2013-02-26 18:13:00,55.8,18.5,29.99,WNW,287,3.0,3.0,23,0.00,,,0.00,Wunderground v.1.15,2013-02-27 01:13:00,
2013-02-26 18:18:00,55.6,18.3,29.99,WNW,289,3.0,4.0,23,0.00,,,0.00,Wunderground v.1.15,2013-02-27 01:18:00,
2013-02-26 18:23:00,55.3,19.1,29.99,NW,305,1.0,4.0,24,0.00,,,0.00,Wunderground v.1.15,2013-02-27 01:23:00,
2013-02-26 18:28:00,55.0,18.8,29.99,WNW,284,1.0,4.0,24,0.00,,,0.00,Wunderground v.1.15,2013-02-27 01:28:00,
2013-02-26 18:33:00,54.8,18.6,29.99,WNW,285,0.0,5.0,24,0.00,,,0.00,Wunderground v.1.15,2013-02-27 01:33:00,
2013-02-26 18:38:00,54.7,18.6,30.00,WNW,288,2.0,5.0,24,0.00,,,0.00,Wunderground v.1.15,2013-02-27 01:38:00,
2013-02-26 18:43:00,54.4,18.3,30.00,West,280,2.0,3.0,24,0.00,,,0.00,Wunderground v.1.15,2013-02-27 01:43:00,
2013-02-26 18:48:00,54.4,18.3,30.00,WNW,283,0.0,5.0,24,0.00,,,0.00,Wunderground v.1.15,2013-02-27 01:48:00,
2013-02-26 18:53:00,54.3,18.2,30.00,NW,304,2.0,4.0,24,0.00,,,0.00,Wunderground v.1.15,2013-02-27 01:53:00,
2013-02-26 18:58:00,53.9,18.8,30.00,WNW,287,0.0,4.0,25,0.00,,,0.00,Wunderground v.1.15,2013-02-27 01:58:00,
2013-02-26 19:03:00,53.5,17.5,30.00,WNW,287,0.0,2.0,24,0.00,,,0.00,Wunderground v.1.15,2013-02-27 02:03:00,
2013-02-26 19:08:00,53.0,19.0,30.01,WNW,287,0.0,2.0,26,0.00,,,0.00,Wunderground v.1.15,2013-02-27 02:08:00,
2013-02-26 19:14:00,52.3,18.4,30.01,WNW,287,0.0,0.0,26,0.00,,,0.00,Wunderground v.1.15,2013-02-27 02:14:00,
2013-02-26 19:19:00,51.9,18.9,30.01,WNW,290,0.0,2.0,27,0.00,,,0.00,Wunderground v.1.15,2013-02-27 02:19:00,
2013-02-26 19:24:00,51.5,18.6,30.01,WNW,290,0.0,1.0,27,0.00,,,0.00,Wunderground v.1.15,2013-02-27 02:24:00,
2013-02-26 19:29:00,51.0,19.8,30.01,WNW,290,0.0,0.0,29,0.00,,,0.00,Wunderground v.1.15,2013-02-27 02:29:00,
2013-02-26 19:34:00,51.1,19.1,30.02,WNW,290,0.0,1.0,28,0.00,,,0.00,Wunderground v.1.15,2013-02-27 02:34:00,
2013-02-26 19:39:00,50.5,20.2,30.02,WNW,290,0.0,0.0,30,0.00,,,0.00,Wunderground v.1.15,2013-02-27 02:39:00,
2013-02-26 19:44:00,50.1,19.8,30.02,WNW,290,0.0,1.0,30,0.00,,,0.00,Wunderground v.1.15,2013-02-27 02:44:00,
2013-02-26 19:49:00,49.8,19.6,30.02,WNW,290,0.0,0.0,30,0.00,,,0.00,Wunderground v.1.15,2013-02-27 02:49:00,
2013-02-26 19:54:00,50.0,19.7,30.02,WNW,290,0.0,2.0,30,0.00,,,0.00,Wunderground v.1.15,2013-02-27 02:54:00,
2013-02-26 19:59:00,50.6,19.5,30.02,WNW,290,1.0,1.0,29,0.00,,,0.00,Wunderground v.1.15,2013-02-27 02:59:00,
2013-02-26 20:05:00,50.4,19.3,30.02,WNW,290,0.0,2.0,29,0.00,,,0.00,Wunderground v.1.15,2013-02-27 03:05:00,
2013-02-26 20:10:00,49.8,19.6,30.02,WNW,290,1.0,2.0,30,0.00,,,0.00,Wunderground v.1.15,2013-02-27 03:10:00,
2013-02-26 20:15:00,49.5,19.3,30.03,WNW,290,0.0,2.0,30,0.00,,,0.00,Wunderground v.1.15,2013-02-27 03:15:00,
2013-02-26 20:20:00,49.1,19.7,30.03,WNW,290,0.0,0.0,31,0.00,,,0.00,Wunderground v.1.15,2013-02-27 03:20:00,
2013-02-26 20:25:00,48.0,20.9,30.03,WNW,290,0.0,0.0,34,0.00,,,0.00,Wunderground v.1.15,2013-02-27 03:25:00,
2013-02-26 20:30:00,47.5,21.8,30.03,WNW,290,0.0,0.0,36,0.00,,,0.00,Wunderground v.1.15,2013-02-27 03:30:00,
2013-02-26 20:35:00,45.9,21.7,30.03,WNW,290,0.0,0.0,38,0.00,,,0.00,Wunderground v.1.15,2013-02-27 03:35:00,
2013-02-26 20:40:00,46.2,21.3,30.04,WNW,290,0.0,0.0,37,0.00,,,0.00,Wunderground v.1.15,2013-02-27 03:40:00,
2013-02-26 20:45:00,45.7,22.1,30.04,WNW,290,0.0,0.0,39,0.00,,,0.00,Wunderground v.1.15,2013-02-27 03:45:00,
2013-02-26 20:50:00,45.7,21.5,30.04,WNW,290,0.0,0.0,38,0.00,,,0.00,Wunderground v.1.15,2013-02-27 03:50:00,
2013-02-26 20:56:00,46.3,20.8,30.04,WNW,290,0.0,1.0,36,0.00,,,0.00,Wunderground v.1.15,2013-02-27 03:56:00,
2013-02-26 21:01:00,46.5,20.9,30.04,WNW,290,0.0,1.0,36,0.00,,,0.00,Wunderground v.1.15,2013-02-27 04:01:00,
2013-02-26 21:06:00,45.2,21.7,30.04,WNW,290,0.0,1.0,39,0.00,,,0.00,Wunderground v.1.15,2013-02-27 04:06:00,
2013-02-26 21:11:00,44.4,22.1,30.05,South,175,0.0,1.0,41,0.00,,,0.00,Wunderground v.1.15,2013-02-27 04:11:00,
2013-02-26 21:16:00,43.4,22.4,30.05,South,175,0.0,1.0,43,0.00,,,0.00,Wunderground v.1.15,2013-02-27 04:16:00,
2013-02-26 21:21:00,43.1,22.6,30.06,South,175,0.0,1.0,44,0.00,,,0.00,Wunderground v.1.15,2013-02-27 04:21:00,
2013-02-26 21:26:00,44.0,21.8,30.06,SW,217,0.0,2.0,41,0.00,,,0.00,Wunderground v.1.15,2013-02-27 04:26:00,
2013-02-26 21:32:00,44.8,21.9,30.06,WSW,254,2.0,2.0,40,0.00,,,0.00,Wunderground v.1.15,2013-02-27 04:32:00,
2013-02-26 21:37:00,44.7,23.0,30.07,WSW,254,0.0,2.0,42,0.00,,,0.00,Wunderground v.1.15,2013-02-27 04:37:00,
2013-02-26 21:42:00,43.5,22.5,30.07,WSW,254,0.0,0.0,43,0.00,,,0.00,Wunderground v.1.15,2013-02-27 04:42:00,
2013-02-26 21:47:00,45.3,20.5,30.07,WSW,254,2.0,2.0,37,0.00,,,0.00,Wunderground v.1.15,2013-02-27 04:47:00,
2013-02-26 21:52:00,46.0,20.5,30.07,WSW,252,1.0,2.0,36,0.00,,,0.00,Wunderground v.1.15,2013-02-27 04:52:00,
2013-02-26 21:57:00,45.9,22.3,30.07,WSW,252,0.0,2.0,39,0.00,,,0.00,Wunderground v.1.15,2013-02-27 04:57:00,
2013-02-26 22:00:00,44.7,23.0,30.07,WSW,252,0.0,0.0,42,0.00,,,0.00,Wunderground v.1.15,2013-02-27 05:00:00,
2013-02-26 22:01:00,44.1,23.0,30.08,WSW,252,0.0,0.0,43,0.00,,,0.00,Wunderground v.1.15,2013-02-27 05:01:00,
2013-02-26 22:06:00,42.4,23.1,30.08,WSW,252,1.0,1.0,46,0.00,,,0.00,Wunderground v.1.15,2013-02-27 05:06:00,
2013-02-26 22:11:00,43.5,21.9,30.07,WSW,252,2.0,3.0,42,0.00,,,0.00,Wunderground v.1.15,2013-02-27 05:11:00,
2013-02-26 22:16:00,44.5,21.6,30.08,WSW,244,2.0,3.0,40,0.00,,,0.00,Wunderground v.1.15,2013-02-27 05:16:00,
2013-02-26 22:22:00,44.0,22.4,30.08,WSW,245,1.0,2.0,42,0.00,,,0.00,Wunderground v.1.15,2013-02-27 05:22:00,
2013-02-26 22:27:00,44.2,21.4,30.08,WSW,248,0.0,2.0,40,0.00,,,0.00,Wunderground v.1.15,2013-02-27 05:27:00,
2013-02-26 22:32:00,44.9,21.4,30.08,WSW,248,0.0,1.0,39,0.00,,,0.00,Wunderground v.1.15,2013-02-27 05:32:00,
2013-02-26 22:37:00,44.4,21.0,30.08,WSW,245,1.0,3.0,39,0.00,,,0.00,Wunderground v.1.15,2013-02-27 05:37:00,
2013-02-26 22:42:00,44.5,22.2,30.08,WSW,242,1.0,2.0,41,0.00,,,0.00,Wunderground v.1.15,2013-02-27 05:42:00,
2013-02-26 22:47:00,43.3,22.3,30.08,WSW,242,0.0,3.0,43,0.00,,,0.00,Wunderground v.1.15,2013-02-27 05:47:00,
2013-02-26 22:52:00,42.3,22.4,30.08,WSW,242,2.0,2.0,45,0.00,,,0.00,Wunderground v.1.15,2013-02-27 05:52:00,
2013-02-26 22:57:00,43.2,22.2,30.08,WSW,242,1.0,2.0,43,0.00,,,0.00,Wunderground v.1.15,2013-02-27 05:57:00,
2013-02-26 23:02:00,43.8,22.2,30.08,WSW,242,0.0,2.0,42,0.00,,,0.00,Wunderground v.1.15,2013-02-27 06:02:00,
2013-02-26 23:07:00,43.0,22.5,30.08,WSW,242,0.0,2.0,44,0.00,,,0.00,Wunderground v.1.15,2013-02-27 06:07:00,
2013-02-26 23:12:00,41.7,22.9,30.09,WSW,242,0.0,1.0,47,0.00,,,0.00,Wunderground v.1.15,2013-02-27 06:12:00,
2013-02-26 23:17:00,41.0,24.2,30.09,WSW,242,0.0,1.0,51,0.00,,,0.00,Wunderground v.1.15,2013-02-27 06:17:00,
2013-02-26 23:23:00,40.3,23.1,30.09,WSW,242,0.0,1.0,50,0.00,,,0.00,Wunderground v.1.15,2013-02-27 06:23:00,
2013-02-26 23:28:00,40.3,23.6,30.09,WSW,242,1.0,2.0,51,0.00,,,0.00,Wunderground v.1.15,2013-02-27 06:28:00,
2013-02-26 23:33:00,42.5,23.2,30.09,SW,218,0.0,2.0,46,0.00,,,0.00,Wunderground v.1.15,2013-02-27 06:33:00,
2013-02-26 23:38:00,42.8,22.9,30.09,SW,219,0.0,2.0,45,0.00,,,0.00,Wunderground v.1.15,2013-02-27 06:38:00,
2013-02-26 23:43:00,42.2,22.9,30.09,SW,219,1.0,1.0,46,0.00,,,0.00,Wunderground v.1.15,2013-02-27 06:43:00,
2013-02-26 23:48:00,42.2,22.4,30.09,WSW,243,0.0,3.0,45,0.00,,,0.00,Wunderground v.1.15,2013-02-27 06:48:00,
2013-02-26 23:53:00,41.0,23.3,30.09,WSW,242,0.0,2.0,49,0.00,,,0.00,Wunderground v.1.15,2013-02-27 06:53:00,
2013-02-26 23:58:00,41.1,22.9,30.10,WSW,242,0.0,2.0,48,0.00,,,0.00,Wunderground v.1.15,2013-02-27 06:58:00,